Wind_Speed
15 14 14 14 14 13 13 14 14 14 14 14 14 14 15 14 14 14 14 14 15 15 15 14 13 13 14 14 14 15 15 15 16 17 18 19 19 19
15 15 15 15 15 15 15 14 14 14 14 14 15 14 15 15 15 15 15 15 15 15 15 15 15 14 14 15 15 15 16 16 17 17 19 19 20 20
15 15 16 16 16 16 15 15 15 15 15 15 15 15 15 15 16 16 15 15 15 15 15 15 15 15 16 16 16 16 17 17 17 18 19 20 20 21
16 16 16 16 16 16 15 15 15 15 16 16 16 16 16 16 16 16 16 15 15 15 15 16 16 16 16 16 16 17 17 18 18 19 20 20 20 21
17 17 17 17 17 17 16 16 15 15 16 16 16 16 16 16 16 16 17 17 16 16 16 17 17 17 17 17 17 18 18 19 19 19 19 20 20 21
18 18 18 18 18 18 17 17 16 16 16 16 16 16 16 17 17 17 17 18 18 18 18 18 18 18 18 18 19 19 19 19 20 20 20 20 20 21
19 19 19 19 19 19 18 17 17 17 17 17 16 16 17 17 17 18 18 19 19 19 19 19 19 19 20 20 20 20 20 20 20 21 21 22 22 22
20 20 20 20 20 20 19 18 18 18 18 18 18 18 17 18 18 19 19 20 20 21 21 21 21 20 20 21 21 21 21 22 22 22 22 23 23 23
21 21 21 22 22 22 21 20 20 20 20 20 20 19 19 19 19 19 20 21 21 22 22 22 22 22 22 22 22 23 23 23 24 24 24 24 24 24
22 22 22 22 22 22 22 22 22 21 21 21 21 21 21 21 21 21 21 22 22 23 23 23 23 24 24 24 24 24 25 25 25 25 25 25 25 25
23 23 23 23 23 23 23 23 22 22 22 22 22 22 23 23 23 23 23 23 23 24 24 25 25 25 26 26 26 26 26 26 26 26 26 27 27 27
24 24 24 24 23 24 24 24 24 24 24 24 24 24 24 24 24 24 24 24 25 25 26 26 26 26 26 26 26 27 27 27 27 27 27 28 28 29
25 25 25 24 24 24 24 24 24 25 25 25 26 25 25 26 25 25 25 25 25 26 26 27 27 27 28 28 28 28 28 28 28 28 28 29 30 30
26 26 25 25 25 24 25 25 25 26 26 26 26 26 27 27 27 26 26 26 27 27 26 27 28 28 29 28 28 29 29 29 29 29 29 30 30 30
26 26 26 26 26 26 26 27 27 27 27 27 27 27 28 28 28 27 27 28 28 28 28 28 29 29 29 29 29 29 30 30 31 30 30 30 30 31
28 28 28 28 27 26 27 27 28 28 28 28 27 27 28 28 28 28 28 28 29 28 28 28 29 30 30 30 31 31 31 31 31 31 31 31 32 32
30 29 29 29 29 28 28 28 28 28 28 28 28 28 28 28 29 29 29 29 29 28 29 29 30 30 30 30 31 32 32 32 32 32 32 32 33 33
30 30 30 30 30 29 29 29 29 29 29 29 29 29 29 29 30 30 29 29 30 30 31 31 31 31 31 31 32 32 32 32 33 33 33 33 33 33
32 31 31 31 30 30 30 30 30 30 29 29 30 30 30 31 30 30 30 30 30 31 31 32 32 32 32 32 32 33 33 33 34 34 34 34 34 34
33 33 32 32 32 31 31 31 31 31 30 30 31 31 31 32 32 32 32 32 32 32 32 32 32 32 33 33 33 33 34 34 35 35 35 35 35 35
33 33 33 32 32 32 32 32 32 32 31 32 32 32 32 32 33 33 33 33 33 33 32 32 33 33 33 33 33 34 35 36 36 36 36 36 36 37
34 34 33 33 32 32 32 32 33 33 33 33 33 33 33 33 33 34 34 33 33 33 33 33 33 33 33 34 34 35 35 36 37 37 37 38 38 38
35 34 34 33 33 32 33 33 34 34 34 34 34 34 34 34 34 34 34 34 34 34 35 35 34 34 34 34 35 35 36 37 37 38 38 38 39 39
Wind_Direction
279 279 279 281 282 283 279 278 276 275 272 271 270 268 267 268 268 269 269 270 272 272 273 277 276 276 277 277 280 278 277 276 277 280 281 283 285 287
280 281 280 280 281 280 280 278 276 274 272 270 270 270 267 267 267 268 268 270 272 274 275 275 276 276 276 275 275 275 276 278 281 283 285 286 287 289
279 280 280 279 280 279 278 277 275 274 272 270 270 269 268 269 270 270 268 269 270 271 273 274 276 275 276 274 274 274 276 277 280 282 285 287 289 291
280 280 280 279 279 278 276 275 275 274 274 272 270 269 270 269 269 270 270 269 270 270 271 273 275 276 276 276 276 275 276 278 280 283 285 287 289 290
280 280 279 278 277 277 276 275 274 273 273 272 270 269 270 269 269 268 268 266 268 269 270 272 274 275 277 277 278 279 279 281 282 283 285 287 289 290
280 280 279 277 276 275 274 271 272 271 272 272 272 271 270 270 269 268 268 266 269 269 271 273 274 275 277 278 279 279 281 284 284 285 286 287 290 291
279 280 280 278 276 275 273 271 272 271 271 272 272 272 270 270 270 269 269 267 269 270 272 273 275 275 276 277 278 279 281 283 284 285 286 288 290 291
278 278 279 278 275 272 271 271 271 271 270 270 270 270 271 271 271 272 271 269 269 270 273 274 275 275 276 276 276 277 279 280 282 284 287 288 288 290
276 277 276 275 275 272 270 270 271 271 270 269 268 269 271 272 273 273 272 270 271 272 273 273 274 274 276 276 276 276 277 279 280 282 285 287 288 289
276 276 275 274 274 273 270 269 271 271 270 270 269 269 271 272 273 275 274 272 272 273 272 273 274 275 276 278 277 277 278 280 282 283 284 286 288 288
274 274 275 275 274 272 270 270 271 270 270 270 270 270 271 272 273 274 274 274 274 274 274 274 275 276 276 277 278 278 279 281 282 283 284 285 287 289
275 274 274 274 272 271 269 269 270 271 271 271 271 271 272 273 273 274 275 275 276 275 275 275 276 276 276 278 279 280 281 281 282 283 285 286 287 288
274 273 273 273 271 270 269 269 270 271 272 272 272 271 271 271 273 274 274 275 277 277 275 275 276 276 276 277 278 280 282 282 283 283 284 287 288 289
274 274 274 273 272 271 271 272 271 271 272 272 272 270 269 270 271 272 273 274 277 277 275 275 275 277 278 277 278 279 280 281 283 284 285 287 289 289
272 273 275 275 275 273 273 273 272 272 273 272 272 271 270 269 269 271 272 273 275 276 276 275 275 277 278 277 278 279 280 281 282 284 284 286 289 290
272 272 274 274 273 273 273 274 274 273 273 273 273 273 271 270 270 270 272 273 274 274 275 276 277 278 278 278 278 279 280 281 282 282 284 285 288 290
272 272 272 272 272 272 273 273 274 273 272 271 272 272 271 270 271 272 273 274 274 273 274 277 279 279 279 278 278 278 279 280 281 282 283 285 287 289
270 271 271 271 271 271 271 272 274 273 272 270 270 271 271 271 271 272 273 274 274 274 275 277 279 279 278 279 279 279 279 279 281 282 283 284 286 288
269 270 270 269 269 269 270 271 272 272 271 271 271 272 272 271 271 271 272 273 274 275 274 277 279 280 279 279 279 280 280 280 281 283 284 284 286 287
269 268 268 269 269 269 269 270 271 271 271 271 272 272 272 272 271 271 272 272 273 275 276 277 279 281 281 281 280 280 281 281 282 283 283 284 284 286
269 269 268 268 268 269 269 270 271 271 271 272 273 273 274 273 272 272 272 272 273 275 277 278 279 280 280 281 281 281 282 282 283 283 283 283 284 286
268 268 268 268 268 268 269 271 271 271 272 272 273 273 274 274 273 272 272 272 273 275 277 277 278 279 280 281 282 282 283 285 284 283 283 284 285 287
266 266 266 267 267 268 270 271 271 271 271 272 273 273 273 273 272 272 272 273 273 274 275 277 278 279 280 281 283 284 285 286 285 284 284 285 286 287
Height
5828 5827 5826 5825 5824 5824 5823 5822 5822 5821 5821 5820 5819 5818 5817 5817 5817 5817 5817 5816 5816 5816 5815 5815 5814 5814 5813 5813 5812 5812 5811 5811 5810 5809 5808 5807 5806 5804
5823 5822 5822 5821 5820 5819 5818 5818 5817 5817 5816 5816 5815 5814 5814 5813 5813 5813 5812 5812 5812 5812 5811 5811 5810 5810 5809 5809 5808 5808 5807 5807 5806 5805 5804 5802 5801 5799
5819 5818 5817 5816 5815 5815 5814 5813 5813 5812 5812 5811 5811 5810 5810 5809 5809 5808 5808 5808 5808 5808 5807 5807 5806 5806 5805 5804 5804 5804 5803 5802 5802 5800 5799 5797 5796 5794
5814 5813 5812 5811 5811 5810 5809 5809 5808 5807 5807 5806 5806 5805 5805 5805 5804 5804 5804 5804 5803 5803 5803 5802 5802 5801 5800 5800 5799 5799 5798 5797 5796 5795 5794 5792 5791 5789
5809 5808 5807 5807 5806 5805 5804 5804 5803 5802 5802 5802 5801 5801 5800 5800 5800 5799 5799 5799 5799 5798 5798 5798 5797 5796 5796 5795 5794 5794 5793 5792 5791 5790 5788 5787 5785 5783
5804 5803 5802 5802 5801 5800 5799 5799 5798 5797 5797 5797 5796 5796 5795 5795 5794 5794 5794 5794 5794 5793 5793 5792 5792 5791 5790 5790 5789 5788 5787 5786 5785 5784 5782 5781 5779 5777
5799 5798 5797 5796 5795 5795 5794 5793 5793 5792 5792 5791 5791 5790 5790 5789 5789 5789 5789 5788 5788 5788 5787 5787 5786 5786 5785 5784 5783 5782 5782 5780 5779 5778 5776 5774 5773 5771
5793 5792 5791 5790 5790 5789 5788 5788 5787 5787 5786 5786 5785 5785 5784 5784 5784 5783 5783 5783 5783 5782 5781 5781 5780 5779 5779 5778 5777 5776 5775 5774 5773 5771 5770 5768 5766 5764
5787 5786 5785 5784 5784 5783 5782 5782 5781 5780 5780 5780 5779 5779 5779 5778 5778 5777 5777 5776 5776 5775 5775 5774 5774 5773 5772 5771 5770 5770 5768 5767 5766 5765 5763 5761 5759 5757
5780 5780 5779 5778 5777 5776 5776 5775 5775 5774 5774 5773 5773 5772 5772 5771 5771 5771 5770 5770 5769 5768 5767 5767 5767 5766 5765 5764 5763 5762 5761 5760 5759 5757 5756 5754 5752 5750
5774 5773 5772 5771 5771 5770 5769 5769 5768 5768 5767 5767 5766 5766 5765 5764 5764 5763 5763 5762 5762 5761 5760 5760 5759 5758 5758 5757 5756 5754 5753 5752 5751 5749 5748 5746 5744 5742
5767 5766 5765 5764 5763 5762 5762 5761 5761 5761 5760 5760 5759 5758 5758 5757 5756 5756 5755 5755 5754 5754 5753 5752 5751 5750 5750 5749 5747 5746 5745 5744 5743 5741 5740 5738 5736 5734
5759 5758 5757 5756 5755 5755 5754 5754 5753 5753 5752 5752 5751 5750 5750 5749 5748 5748 5747 5747 5746 5745 5744 5743 5743 5742 5741 5740 5739 5738 5736 5735 5734 5733 5731 5730 5728 5725
5751 5750 5749 5749 5748 5747 5747 5746 5745 5745 5744 5744 5743 5742 5742 5741 5740 5740 5739 5738 5737 5736 5736 5735 5734 5733 5732 5731 5730 5729 5728 5726 5725 5724 5723 5721 5719 5716
5743 5742 5741 5740 5740 5739 5739 5738 5737 5736 5736 5735 5734 5734 5733 5732 5732 5731 5730 5730 5729 5728 5727 5726 5725 5724 5723 5722 5721 5720 5719 5717 5716 5715 5713 5711 5709 5707
5734 5733 5733 5732 5731 5731 5730 5729 5729 5728 5727 5726 5726 5725 5724 5723 5723 5722 5721 5721 5720 5719 5718 5717 5716 5715 5713 5712 5711 5710 5709 5708 5707 5705 5703 5702 5700 5697
5724 5724 5723 5722 5722 5722 5721 5720 5720 5719 5718 5718 5717 5716 5715 5715 5714 5713 5712 5712 5711 5710 5710 5708 5707 5705 5704 5703 5701 5700 5699 5698 5697 5695 5694 5692 5690 5687
5715 5714 5713 5713 5713 5713 5712 5711 5711 5710 5709 5708 5708 5707 5706 5706 5705 5704 5703 5702 5702 5701 5700 5699 5697 5696 5695 5693 5692 5690 5689 5688 5686 5685 5683 5682 5680 5677
5704 5704 5704 5703 5703 5703 5703 5702 5702 5701 5700 5699 5699 5698 5697 5696 5695 5695 5694 5693 5692 5691 5689 5688 5687 5685 5684 5683 5682 5680 5678 5677 5676 5674 5673 5671 5669 5667
5694 5694 5693 5693 5693 5693 5693 5692 5692 5691 5690 5690 5689 5688 5687 5686 5685 5685 5684 5683 5682 5680 5679 5678 5677 5675 5673 5672 5671 5670 5668 5666 5665 5663 5662 5660 5658 5656
5683 5683 5683 5683 5683 5682 5682 5682 5682 5681 5680 5680 5679 5678 5677 5676 5675 5674 5673 5672 5671 5670 5669 5668 5666 5665 5663 5661 5660 5659 5657 5655 5653 5652 5650 5649 5647 5645
5672 5672 5672 5672 5672 5672 5671 5671 5670 5670 5670 5669 5668 5667 5666 5665 5664 5663 5663 5662 5661 5660 5659 5657 5656 5654 5653 5651 5649 5647 5646 5644 5642 5640 5638 5637 5635 5633
5661 5661 5661 5661 5661 5661 5661 5660 5660 5659 5659 5658 5657 5656 5655 5654 5653 5652 5652 5651 5650 5649 5647 5646 5645 5643 5642 5640 5638 5636 5634 5632 5630 5628 5627 5624 5623 5621